Location: Johnsons (historical)
(38.7019°N, 119.2968°W)
Time: 05:23:47
(UTC+00:00)

Daily predictions for brighter satellites

Satellite Brightness Start Highest point End
(mag) Time Altitude Azimuth Time Altitude Azimuth Time Altitude Azimuth
Cosmos 2228 4.1 02:46:20 10° SE 02:49:46 24° E 02:53:14 10° NE
CZ-2C R/B 4.3 02:48:49 10° ENE 02:50:22 11° E 02:51:55 10° ESE
ARGOS 4.1 02:47:57 10° SE 02:52:32 29° ENE 02:57:07 10° N
SJ-6B 4.4 02:50:14 10° ESE 02:53:09 19° ENE 02:56:06 10° NNE
STARLINK-1119 4.5 02:49:32 10° WNW 02:53:32 48° SW 02:57:31 10° SSE
ISS -3.1 02:50:57 10° WNW 02:54:15 55° SW 02:57:32 10° SE
ATLAS 2AS CENTAUR R/B 3.8 02:47:56 10° NNW 02:54:38 32° NE 03:00:50 10° ESE
Cosmos 1758 Rocket 4.2 02:53:26 10° NNE 02:57:23 34° ENE 03:01:18 10° SE
ARGOS Delta rocket 4.2 02:54:18 10° SSE 02:59:26 57° ENE 03:04:47 10° N
Cosmos 2184 Rocket 4.4 02:55:09 10° N 03:01:04 42° ENE 03:06:53 10° SSE
Cosmos 1606 Rocket 4.2 02:58:05 10° SSE 03:02:07 36° E 03:06:11 10° NNE
FALCON 9 DEB 3.7 02:58:50 10° SSW 03:02:07 39° SE 03:05:24 10° ENE
Cosmos 407 Rocket 4.1 02:58:14 10° SSE 03:02:48 33° E 03:07:22 10° NE
SL-24 R/B - RUBIN 2 4.4 03:00:29 10° S 03:05:33 46° ESE 03:11:19 10° NE
Aureole 3 4.1 03:01:49 10° S 03:06:24 84° W 03:12:20 10° N
GEOS 3 Rocket 3.7 03:01:25 10° SE 03:06:26 60° NE 03:11:35 10° NNW
Cosmos 1992 Rocket 4.0 03:02:38 10° NNW 03:07:52 86° ENE 03:13:04 10° SSE
IRIDIUM 106 4.4 03:08:22 10° N 03:13:33 60° E 03:18:40 10° SSE
Cosmos 1437 2.8 03:11:24 10° N 03:14:21 47° E 03:17:16 10° SSE
SL-4 R/B 3.4 03:11:57 10° W 03:15:02 30° NNW 03:18:06 10° NE
Hubble Space Telescope 2.8 03:13:12 10° SSW 03:15:17 14° SSE 03:17:07 11° SE
STARLINK-52 3.0 03:13:14 10° SSW 03:16:21 53° SE 03:19:30 10° ENE
Nadezhda 1 Rocket 4.3 03:10:29 10° SSE 03:16:29 45° E 03:22:30 10° NNE
SL-8 R/B 3.7 03:11:43 10° WNW 03:16:32 87° SSW 03:20:40 14° SE
Cosmos 1340 Rocket 3.8 03:15:26 10° SSE 03:18:50 26° E 03:22:14 10° NE
Aureole 1 Rocket 4.3 03:15:33 10° S 03:23:18 63° ESE 03:29:31 10° NNE
Cosmos 2154 Rocket 4.5 03:17:49 10° N 03:23:46 41° ENE 03:29:38 10° SE
Cosmos 1703 3.8 03:20:46 10° N 03:24:31 39° E 03:27:47 13° SSE
ATLAS 5 CENTAUR R/B 1.4 03:20:43 10° SSW 03:24:39 56° ESE 03:28:58 10° NE
Cosmos 1818 4.4 03:19:44 10° SW 03:25:03 55° NW 03:30:25 10° NNE
Cosmos 1328 4.3 03:22:23 10° N 03:26:11 40° E 03:29:20 14° SE
Cosmos 1908 3.2 03:26:20 10° S 03:30:06 57° E 03:33:56 10° NNE
Meteor 1-16 Rocket 4.1 03:25:29 10° S 03:30:51 89° W 03:36:26 10° N
FREGAT/IRIS 2.2 03:33:26 14° SSE 03:35:39 87° ENE 03:38:23 10° N
CZ-4 R/B 4.4 03:33:48 10° WSW 03:35:42 13° W 03:37:36 10° WNW
CZ-2C R/B 3.8 03:34:28 10° NNE 03:39:03 53° E 03:43:32 10° S
Cosmos 1943 Rocket 3.7 03:36:26 10° NW 03:41:26 35° WSW 03:46:26 10° SSW
MOS 1 Rocket 4.0 03:36:50 10° NNE 03:41:55 40° E 03:46:58 10° SSE
Cosmos 1726 3.5 03:38:33 10° SSW 03:42:06 41° W 03:45:39 10° N
Cosmos 1953 4.5 03:41:03 10° SW 03:44:31 29° WNW 03:48:02 10° NNW
Cosmos 2074 Rocket 4.1 03:38:44 10° N 03:45:03 83° W 03:51:20 10° S
SL-08 RB Rocket 3.7 03:41:43 15° SSE 03:45:22 64° ENE 03:49:55 10° N
Resurs 1-3 4.2 03:44:13 26° ESE 03:45:56 37° ENE 03:49:58 10° N
H-2A R/B 2.2 03:41:40 10° S 03:46:54 74° WSW 03:52:00 10° NNW
USA 186 2.2 03:43:41 10° S 03:47:00 64° W 03:50:13 10° NNW
CZ-2C R/B 3.1 03:46:58 10° S 03:51:52 72° WSW 03:56:39 10° NNW
Cosmos 2369 Rocket 3.5 03:47:14 10° NW 03:52:27 39° WSW 03:57:37 10° S
MOS 1 4.4 03:47:51 10° S 03:53:28 78° WSW 03:59:10 10° NNW
Cosmos 1610 Rocket 4.4 03:55:34 10° N 04:01:46 86° E 04:07:36 11° S
Cosmos 2058 Rocket 3.0 03:58:14 10° S 04:02:45 87° E 04:07:17 10° N
Ariane Rocket 4.2 04:01:04 10° SSW 04:05:48 40° W 04:10:34 10° NNW
Cosmos 1140 Rocket 3.6 04:04:16 10° SSW 04:09:27 78° WNW 04:14:39 10° NNE
BREEZE-M DEB (TANK) 4.1 04:05:44 10° NW 04:10:08 33° NNE 04:10:34 31° NE
NOSS 3-4 (A) 3.8 04:06:40 10° NNW 04:13:51 83° ENE 04:17:57 31° SE
NOSS 3-4 (C) 3.8 04:06:46 10° NNW 04:13:57 82° ENE 04:18:01 32° SE
Cosmos 1295 Rocket 4.4 04:10:02 10° N 04:16:22 82° E 04:20:26 24° S
Resurs 01 Rocket 1.6 04:16:17 53° E 04:16:42 56° ENE 04:21:02 10° N
Spot 2 Rocket 4.4 04:17:49 31° ENE 04:17:49 31° ENE 04:22:15 10° N
Abrixas rocket 4.2 04:19:09 10° NNW 04:21:00 19° N 04:21:00 19° N
MetOp-A 4.2 04:22:24 27° S 04:25:24 74° WSW 04:30:46 10° NNW
Cosmos 921 Rocket 2.7 04:21:37 10° NNW 04:25:49 78° ENE 04:25:52 78° E
DMSP B5D2-2 4.3 04:22:14 10° N 04:27:26 70° WNW 04:32:37 10° SSW
CZ-2C R/B 2.6 04:26:00 10° N 04:31:11 76° WNW 04:36:23 10° SSW
Cosmos 1461 3.0 04:29:10 10° NNW 04:33:46 87° WSW 04:34:03 79° SSE
USA 234 3.1 04:33:18 10° NE 04:39:52 79° SE 04:46:25 10° SW
COSMOS 2455 2.7 04:33:59 10° NNW 04:40:03 76° ENE 04:41:01 62° ESE
Cosmos 2341 Rocket 4.0 04:35:48 10° N 04:42:13 86° W 04:44:38 41° S
ERS-1 Rocket 4.5 04:47:17 24° NE 04:47:17 24° NE 04:50:04 10° N
ATLAS 2AS CENTAUR R/B 3.1 04:38:47 10° NW 04:46:01 59° WSW 04:48:41 37° S
Cosmos 1300 3.6 04:46:38 47° WNW 04:46:38 47° WNW 04:50:09 10° N
Terra 4.0 04:56:50 15° NNE 04:56:50 15° NNE 04:58:04 10° NNE
Cosmos 2218 Rocket 3.8 04:49:45 10° N 04:56:00 75° E 04:56:21 73° ESE
BREEZE M DEB (TANK) 3.7 04:53:25 10° W 04:56:42 51° NNW 05:05:59 10° ENE
Cosmos 1980 Rocket 4.4 04:59:57 10° NNE 05:01:23 12° NE 05:01:23 12° NE
Cosmos 2181 Rocket 4.3 05:04:15 32° SSW 05:07:10 63° W 05:13:19 10° N
ATLAS 5 CENTAUR R/B 4.4 05:06:58 10° W 05:09:43 17° NW 05:12:40 10° N
SL-8 Rocket 4.2 05:05:19 10° NNW 05:11:36 69° W 05:12:31 60° SW
Cosmos 864 Rocket 4.4 05:07:46 10° N 05:13:51 85° NW 05:13:51 85° NW
SPOT 1/Viking Rocket 4.3 05:15:45 46° N 05:15:45 46° N 05:19:28 10° N
Cosmos 2366 rocket 4.1 05:18:35 10° NNW 05:24:37 69° W 05:24:37 69° W
COSMOS 2406 4.5 05:50:47 36° N 05:50:47 36° N 05:54:19 10° NNE
Resurs 01 Rocket 4.4 05:53:51 12° W 05:53:51 12° W 05:55:12 10° WNW
Cosmos 1697 Rocket 4.4 06:11:46 10° NNW 06:14:28 29° NNW 06:14:28 29° NNW
CZ-4C R/B 3.7 06:22:26 10° NNW 06:27:53 45° NNE 06:27:53 45° NNE
Cosmos 1980 Rocket 4.3 06:41:16 10° NNW 06:43:09 22° NNW 06:43:09 22° NNW
SL-16 R/B 4.0 09:16:56 33° NNE 09:16:56 33° NNE 09:20:25 10° N
Cosmos 2227 Rocket 4.3 09:31:39 21° ENE 09:31:39 21° ENE 09:34:02 10° NE
ADEOS II 4.3 09:30:39 10° NE 09:32:55 20° ENE 09:32:55 20° ENE
Resurs 1-4 Rocket 4.0 09:42:16 10° NNE 09:44:24 25° N 09:44:24 25° N
CENTAUR R/B 4.0 09:54:54 25° E 09:54:54 25° E 09:59:08 10° NE
ARIANE 5 R/B 4.5 09:49:39 10° NE 09:52:44 24° ENE 09:52:44 24° ENE
CZ-2D R/B 3.7 10:09:43 10° N 10:12:26 28° NNW 10:12:26 28° NNW
NOSS 3-2 (C) 4.0 10:23:06 50° E 10:23:06 50° E 10:28:17 10° NE
Cosmos 2237 Rocket 3.4 10:24:27 10° NNW 10:27:36 34° NNW 10:27:36 34° NNW
Cosmos 1634 Rocket 4.0 10:27:36 10° N 10:33:29 75° NE 10:33:29 75° NE
Cosmos 2297 Rocket 2.7 10:47:28 50° NNW 10:47:28 50° NNW 10:52:03 10° NNE
ATLAS 3B R/B 3.5 10:49:42 35° SSE 10:51:33 42° ESE 10:57:44 10° NE
Cosmos 1048 Rocket 4.3 10:46:56 10° NNW 10:52:16 66° ENE 10:53:17 54° ESE
Cosmos 2142 Rocket 4.5 10:47:05 10° N 10:53:27 81° E 10:54:51 57° SSE
USA 267 3.1 10:48:12 10° NE 10:54:46 90° WNW 10:55:39 70° SW
Cosmos 2219 4.2 10:57:26 35° NW 10:57:26 35° NW 11:01:53 10° N
Okean 1-7 4.4 10:59:26 31° N 10:59:26 31° N 11:01:52 10° N
SL-16 R/B 4.5 11:02:01 14° NW 11:02:01 14° NW 11:03:07 10° NW
Cosmos 1125 Rocket 3.5 10:59:11 78° N 10:59:11 78° N 11:04:10 10° NNE
STARLINK-1046 4.5 11:05:30 48° ENE 11:05:30 48° ENE 11:08:34 10° NE
Cosmos 389 Rocket 4.2 11:06:28 32° NE 11:06:28 32° NE 11:08:35 10° NNE
Meteor 1-18 Rocket 4.2 11:07:14 69° W 11:07:16 69° W 11:12:59 10° N
STARLINK-1039 4.2 11:10:18 54° NE 11:10:18 54° NE 11:13:34 10° NE
Cosmos 2227 Rocket 2.8 11:13:28 39° NW 11:13:28 39° NW 11:18:30 10° N
STARLINK-1045 4.0 11:15:05 61° NE 11:15:05 61° NE 11:18:33 10° NE
ADEOS II 3.0 11:10:01 10° N 11:13:52 33° NW 11:13:52 33° NW
H-2A R/B 3.6 11:17:12 24° NNW 11:17:12 24° NNW 11:18:59 10° NNW
Nadezhda 4 Rocket 4.5 11:12:32 20° SSE 11:16:58 59° E 11:23:11 10° NNE
USA 238 DEB 4.2 11:16:07 38° WNW 11:17:18 41° NW 11:23:45 10° NNE
USA 238 4.2 11:16:12 38° WNW 11:17:24 41° NW 11:23:53 10° NNE
STARLINK-1050 3.9 11:19:53 65° NNE 11:19:53 65° NNE 11:23:32 10° NE
Cosmos 2279 Rocket 3.9 11:14:32 10° N 11:20:46 75° W 11:23:25 37° S
STARLINK-1055 3.8 11:24:39 66° N 11:24:39 66° N 11:28:30 10° NE
MSX 4.3 11:19:50 10° NNE 11:25:31 58° E 11:29:42 19° S
TRAILBLAZER 4.4 11:22:38 10° NNW 11:27:12 81° WSW 11:31:42 10° SSE
IDEFIX/ARIANE 42P 2.5 11:22:44 10° NNE 11:27:58 88° ESE 11:29:43 43° SSW
STARLINK-1022 3.7 11:29:27 63° NNW 11:29:27 63° NNW 11:33:28 10° NE
CZ-2C R/B 4.1 11:26:11 10° NE 11:30:08 28° E 11:34:05 10° SSE
Okean 3 3.3 11:33:04 72° WNW 11:33:04 72° WNW 11:37:13 10° N
ARIANE 5 R/B 3.3 11:28:26 10° N 11:33:05 35° WNW 11:33:05 35° WNW
deb Chang Zheng 4 3.5 11:29:00 10° NNE 11:33:21 85° ESE 11:34:18 54° S
Cosmos 1544 4.5 11:30:34 10° NNW 11:32:28 28° NNW 11:32:28 28° NNW
STARLINK-1042 3.8 11:34:13 57° NW 11:34:20 57° NW 11:38:25 10° NE
Spot 4 Rocket 4.4 11:30:46 10° N 11:35:39 44° WNW 11:36:05 43° W
STARLINK-1056 3.9 11:39:01 51° NW 11:39:20 52° NW 11:43:23 10° NE
NOSS 3-2 (A) 4.5 11:39:45 25° WNW 11:41:25 28° NW 11:46:55 10° NNE
ASTRO F (AKARI) 4.4 11:38:18 10° N 11:41:22 67° NNW 11:41:22 67° NNW
CENTAUR R/B 2.8 11:42:05 36° W 11:44:03 49° NW 11:50:42 10° NNE
STARLINK-1054 4.0 11:43:46 45° WNW 11:44:18 48° NW 11:48:19 10° NE
Cosmos 1356 3.4 11:43:53 10° N 11:47:19 77° E 11:49:03 27° SSE
STARLINK-1062 4.2 11:48:33 39° WNW 11:49:17 44° NW 11:53:16 10° NE
SL-16 R/B 2.2 11:45:35 10° NNW 11:51:08 59° WSW 11:56:41 10° S
ADEOS 4.1 11:46:23 10° NNE 11:51:32 59° ESE 11:56:40 10° S
Gbstr 26 Del rocket 4.2 11:48:24 24° SSW 11:52:05 55° SE 11:57:19 10° ENE
Cosmos 1300 Rocket 3.4 11:48:00 10° N 11:52:19 76° W 11:56:06 13° S
Meteor 1-13 Rocket 4.1 11:48:42 19° SSW 11:52:53 82° W 11:58:33 10° N
Cosmos 2221 Rocket 4.0 11:52:52 40° W 11:53:20 41° W 11:57:32 10° N
PAYLOAD A 4.4 11:48:38 10° NNE 11:53:59 67° ESE 11:59:08 10° S
STARLINK-1053 4.3 11:53:21 35° WNW 11:54:18 40° NW 11:58:14 10° NE
